KINEIS-5D

Last updated on Mon Sep 21 2026 00:02:54 GMT+0000 (Coordinated Universal Time)

1 62082U 24219B 26263.56184700 .00000579 00000+0 98710-4 0 9995 2 62082 97.9269 60.0151 0004307 342.3833 17.7225 14.72589725 97791
UTC large
Height (km)
Speed (km/s)
/
Latitude / Longitude
Inclination (degrees)
Orbital Period (minutes)
Azimuth
Elevation
Range (km)
Doppler Factor

Next 0 passes for location: London (51.5072 / 0.1276)

No passes found over London.
KINEIS-5D